Regional Weather Roundup
Issued by NWS

Home | Current Version | Previous Version | Graphics & Text | Print | Product List | Glossary On
Versions: 1 2 3 4 5 6 7 8 9 10 11 12 13 14 15 16 17 18 19 20 21 22 23 24 25 26 27 28 29 30 31 32 33 34 35 36 37 38 39 40 41 42 43 44 45 46 47 48 49 50
000
ASUS43 KMKX 050821
RWRWI

WISCONSIN REGIONAL WEATHER ROUNDUP
NATIONAL WEATHER SERVICE MILWAUKEE/SULLIVAN WI
300 AM CDT SAT SEP 05 2015

NOTE: "FAIR" INDICATES FEW OR NO CLOUDS BELOW 12,000 FEET WITH NO
SIGNIFICANT WEATHER AND/OR OBSTRUCTIONS TO VISIBILITY.

WIZ001-002-006>008-014>016-023>028-050900-
NORTHWEST WISCONSIN

CITY           SKY/WX    TMP DP  RH WIND       PRES   REMARKS
SUPERIOR ARPT  MOCLDY    59  57  94 NE3       29.98S
ASHLAND        CLEAR     64  64 100 CALM      29.99F
HAYWARD        CLEAR     71  66  84 VRB3      30.02S
SIREN          CLOUDY    72  69  92 SE8       29.97F
CUMBERLAND     PTCLDY    68  64  88 SE7       30.01S
RICE LAKE      PTCLDY    69  66  89 SE8       30.02F
CHETEK         PTCLDY    69  67  94 E5        30.02S
LADYSMITH      PTCLDY    69  66  90 SE3       30.05S
EAU CLAIRE     MOCLDY    71  67  87 VRB3      30.00S
MENOMONIE      RAIN      73  71  94 SE5       30.00S
NEW RICHMOND   MOCLDY    73  71  93 E6        29.97S
OSCEOLA        MOCLDY    73  73 100 SE6       29.99S
$$

WIZ003>005-009-010-017-018-050900-
NORTH CENTRAL WISCONSIN

CITY           SKY/WX    TMP DP  RH WIND       PRES   REMARKS
MANITOWISH WTR PTCLDY    65  65 100 S5        30.07F
ARBOR VITAE    MOCLDY    67  65  93 S5        30.08S
WOODRUFF       MOCLDY    67  65  93 S5        30.08S
RHINELANDER    CLOUDY    65  64  97 CALM      30.09F FOG
EAGLE RIVER    CLOUDY    64  64 100 S3        30.09R FOG
LAND O LAKES   CLOUDY    65  65  99 S3        30.09S FOG
PHILLIPS       CLOUDY    66  66  99 SE3       30.05S
TOMAHAWK       CLOUDY    65  64  96 CALM      30.08F FOG
MEDFORD        MOCLDY    65  65 100 SE6       30.06S FOG
MERRILL        CLOUDY    67  67 100 SE3       30.08S FOG
$$

WIZ029-030-035-036-043>047-050900-
CENTRAL WISCONSIN

CITY           SKY/WX    TMP DP  RH WIND       PRES   REMARKS
WAUSAU         CLOUDY    67  65  93 E3        30.06S FOG
MOSINEE        CLOUDY    64  64 100 E3        30.07F FOG
MARSHFIELD     MOCLDY    67  63  87 E7        30.06S FOG
STEVENS POINT  MOCLDY    65  64  99 CALM      30.07S FOG
WAUPACA        CLOUDY    68  67  98 CALM      30.06S FOG
WAUTOMA        MOCLDY    66  66 100 CALM      30.06S
WISC RAPIDS    PTCLDY    67  64  90 E3        30.06F
CAMP DOUGLAS   MOCLDY    64  64 100 SE3       30.04R FOG
$$

WIZ011>013-019>022-031-037>040-048>050-050900-
NORTHEAST WISCONSIN

CITY           SKY/WX    TMP DP  RH WIND       PRES   REMARKS
ANTIGO         CLOUDY    64  64 100 S3        30.09F FOG
SHAWANO        NOT AVBL
OCONTO         MOCLDY    58  58 100 CALM      30.06R VSB 1
STURGEON BAY   CLOUDY    64  63  94 CALM      30.08S VSB<1/4
GREEN BAY      FOG       61  61 100 CALM      30.07S VSB 1/4
MANITOWOC      FOG       64  63  96 MISG      30.07S VSB 1/4
APPLETON       MOCLDY    64  64 100 CALM      30.05S FOG
CLINTONVILLE   FOG       63  63 100 CALM      30.07R VSB 1/4
OSHKOSH        CLOUDY    66  64  93 S3        30.05F FOG
$$

WIZ032>034-041-042-053>061-050900-
SOUTHWEST WISCONSIN

CITY           SKY/WX    TMP DP  RH WIND       PRES   REMARKS
LA CROSSE      LGT RAIN  75  73  93 SE10      30.00F FOG
SPARTA         PTCLDY    69  66  92 CALM      30.04S
VIROQUA        CLOUDY    72  72 100 CALM      30.06R
BOSCOBEL       CLOUDY    73  71  93 CALM      30.03R FOG
PRAIRIE DU CHI LGT RAIN  73  71  92 E3        30.01R
PLATTEVILLE    CLOUDY    73  72  96 CALM      30.05R
$$

WIZ056-057-062-063-064-067-068-050900-
SOUTH CENTRAL WISCONSIN

CITY           SKY/WX    TMP DP  RH WIND       PRES   REMARKS
REEDSBURG      PTCLDY    68  67  97 CALM      30.04S
BARABOO/DELLS    N/A     69  65  88 S3        30.04S FOG
LONE ROCK      MOCLDY    71  68  90 E8        30.04R
MINERAL POINT  MOCLDY    72  70  94 SE6       30.05R FOG
MADISON        PTCLDY    67  64  90 E5        30.05S
MIDDLETON      PTCLDY    68  67  95 E3        30.05S
WATERTOWN      PTCLDY    64  64 100 CALM      30.05F
MONROE         CLEAR     66  64  94 E3        30.05S FOG
JANESVILLE     CLEAR     68  64  88 CALM      30.04S FOG
$$

WIZ051-052-058>065-066-070>072-050900-
SOUTHEAST WISCONSIN

CITY           SKY/WX    TMP DP  RH WIND       PRES   REMARKS
MILWAUKEE      MOCLDY    67  65  93 SE3       30.05F FOG
WAUKESHA       CLOUDY    63  63 100 CALM      30.08S FOG
MILWAUKEE/TIMM CLOUDY    64  63  94 CALM      30.07S FOG
RACINE         PTCLDY    67  64  90 CALM      30.07F
BURLINGTON     PTCLDY    64  64  97 CALM      30.06R FOG
KENOSHA        MOCLDY    67  65  93 NE5       30.06S
FOND DU LAC    CLOUDY    65  64  97 S5        30.06F
SHEBOYGAN      FOG       64  64 100 CALM      30.06S VSB 1/2
WEST BEND      CLOUDY    63  63 100 CALM      30.07S FOG
JUNEAU         PTCLDY    65  64  97 CALM      30.07S FOG
$$

LSZ147-162-050900-
LAKE SUPERIOR

STATION/POSITION TIME  TEMP    WIND        PRES    WAVE
                       AIR SEA DIR/SP/G            HT/PER
                 (UTC) (F)     (DEG/KT/KT) (MB)    (FT/S)
W MID LAKE BUOY  0750   62 57  150/  6/  8 1015.8F   1/ 4
DEVILS ISLAND    0800   63      10/  7/  8 1015.2F
PORT WING        0740   52      40/  4/  7 1015.2S
SAXON HARBOR     0740   73     190/  3/ 10 1014.9F
$$

LMZ867-665-643>646-050900-
LAKE MICHIGAN

STATION/POSITION TIME  TEMP    WIND        PRES    WAVE
                       AIR SEA DIR/SP/G            HT/PER
                 (UTC) (F)     (DEG/KT/KT) (MB)    (FT/S)
CHAMBERS ISLAND  0700   66      CALM  /  2 1017.9S
S GREEN BAY BUOY 0800   66 67  360/  2/  2 1019.2S
N MID LAKE BUOY  0750   68 67  160/  6/  6 1017.0F   1
NORTHPORT PIER   0700   67     280/  4/  5 1017.6S
SISTER BAY       0711   65        CALM       N/A
ALGOMA LAKESHORE 0714          320/  4/  5   N/A
KEWAUNEE LAKESHO 0800   63     270/  1/  2 1017.0R
SHEBOYGAN LAKESH 0800   63     170/  5/  6 1018.3R
PORT WASHINGTON  0700   61      CALM  /  1 1018.6S
ATWATER BUOY     0800   59 58  300/  2/  4 1019.0F
MILWAUKEE LAKESH 0810   63      20/  1/  1   N/A
S MID LAKE BUOY  0750   69     130/  2     1017.3F
KENOSHA   LAKESH 0800   63     360/  2/  6 1017.6S
$$

TC  - TEMPERATURE IN CELSIUS
VSB - VISIBILITY IN STATUTE MILES
WCI - WIND CHILL INDEX
HX  - HEAT INDEX




USA.gov is the U.S. government's official web portal to all federal, state and local government web resources and services.